819  
ASUS41 KCLE 260712  
RWRCLE  
OHIO REGIONAL WEATHER ROUNDUP  
NATIONAL WEATHER SERVICE WILMINGTON, OH  
300 AM EDT WED APR 26 2017  
 
NOTE: "FAIR" INDICATES FEW OR NO CLOUDS BELOW 12,000 FEET WITH NO  
SIGNIFICANT WEATHER AND/OR S TO VISIBILITY
.  
 
OHZ001>008-015>018-024>027-034-035-043-044-260800-  
NORTHWEST OHIO  
 
CITY SKY/WX TMP DP RH WIND PRES REMARKS
 
DEFIANCE FAIR 61 53 75 SE8 29.68S  
FINDLAY FAIR 61 52 72 SE12 29.69F  
TOLEDO EXPRESS FAIR 57 54 89 SE6 29.68F  
TOLEDO EXEC FAIR 57 54 89 SE7 29.71F  
LIMA FAIR 61 54 77 SE8 29.70F  

 
 
OHZ009>014-019>023-028>033-038-089-260800-  
NORTHEAST OHIO  
 
CITY SKY/WX TMP DP RH WIND PRES REMARKS
 
CLE-HOPKINS FAIR 59 52 77 SE8 29.77S  
CLE-LAKEFRONT FAIR 59 52 77 SE7 29.74S  
CUY CO. ARPT NOT AVBL  
LORAIN-ELYRIA FAIR 56 51 84 S8 29.74F  
ASHTABULA FAIR 55 53 93 S6 29.78F  
AKRON-CANTON FAIR 55 51 86 SE6 29.77F  
WOOSTER FOG 51 49 92 CALM 29.77S VSB 1/2  
MANSFIELD FAIR 56 54 93 SE7 29.75F  
YOUNGSTOWN FAIR 51 49 92 E6 29.78F  

 
 
OHZ042-051>053-060>062-070>072-077>081-260800-  
SOUTHWEST OHIO  
 
CITY SKY/WX TMP DP RH WIND PRES REMARKS
 
CINC-COVINGTON FAIR 60 55 83 S5 29.70R  
CINC-LUNKEN FOG 56 56 100 CALM 29.71R VSB 1  
HAMILTON FAIR 56 56 100 CALM 29.71R  
DAYTON FAIR 59 55 87 SE7 29.71F  
WRIGHT-PAT AFB FAIR 60 58 91 CALM 29.70F  
DAYTON GENERAL FAIR 61 56 83 SE5 29.70S  
WILMINGTON FAIR 58 56 93 SE3 29.71F  

 
 
OHZ036-037-039>041-045>050-054>059-063>069-073>076-082>088-260800-  
CENTRAL AND SOUTHEAST OHIO  
 
CITY SKY/WX TMP DP RH WIND PRES REMARKS
 
COLUMBUS FAIR 59 54 83 E8 29.73F  
OSU AIRPORT FAIR 58 55 90 SE6 29.73F  
BOLTON FIELD FAIR 57 54 89 E3 29.73F  
RICKENBACK AFB FAIR 55 53 93 NE3 29.73F  
NEWARK FAIR 54 51 90 CALM 29.74F  
MARION FAIR 57 52 83 SE9 29.73F  
LANCASTER FAIR 54 51 90 CALM 29.74F  
ZANESVILLE FAIR 54 53 97 CALM 29.75S  
NEW PHILLY FAIR 52 51 97 CALM 29.77S  

 
 
 
CLICK HERE TO GO TO PREVIOUS BULLETINS.

The Nexlab OH Page
The Nexlab PA Page Main Text Page